Terug naar catalogus

FALCON HEAVY DEB

ActiefGEO
NORAD 55266·DEBRIS·🇺🇸 United States

Gelanceerd Jan 15, 2023 vanaf Cape Canaveral Space Force Station

Loading…

TLE

VersSource: Space-Track

Epoch: Sep 14, 2026, 08:32 UTC

1 55266U 23008D   26257.35560422 -.00000060  00000-0  00000-0 0  9993
2 55266   3.3672  76.9398 0011887  81.7564 278.7724  1.02407376  8943

Volg FALCON HEAVY DEB in realtime met AllMySat

Download on the App Store